Location: Ferchesar
(52.6477°N, 12.4298°E)
Time: 15:38:22
(UTC+01:00)

AO-73 - Pass Details

Date: 26 October 2021
Orbit: 581 x 660 km, 97.6° (Epoch: 04 December)

Event Time Altitude Azimuth Distance (km) Brightness Sun altitude
Rises 05:00:30 0° 23° (NNE) 2,825 ? -27.0°
Reaches altitude 10° 05:02:59 10° 37° (NE) 1,926 ? -26.6°
Maximum altitude 05:06:25 24° 93° (E) 1,239 ? -26.1°
Drops below altitude 10° 05:09:52 10° 148° (SSE) 1,940 ? -25.6°
Sets 05:12:23 0° 162° (SSE) 2,851 ? -25.3°
